Weather History for KFOK - November, 2013

Change the Weather History Date:

Saturday, November 2, 2013

  Actual Average (KISP) Record (KISP)
Temperature  
Mean Temperature 56 °F 49 °F  
Max Temperature 66 °F 58 °F 72 °F (1990)
Min Temperature 48 °F 41 °F 30 °F (2002)
Degree Days  
Heating Degree Days 9 16  
Month to date heating degree days 32  
Since 1 July heating degree days 452  
Cooling Degree Days 0 0  
Month to date cooling degree days 0  
Year to date cooling degree days 787  
Growing Degree Days 6 (Base 50)    
Moisture  
Dew Point 49 °F    
Average Humidity 80    
Maximum Humidity 100    
Minimum Humidity 54    
Precipitation  
Precipitation 0.00 in 0.12 in 1.17 in (1999)
Month to date precipitation 0.24  
Year to date precipitation 38.75  
Snow  
Snow 0.00 in 0.00 in - ()
Month to date snowfall 0.0  
Since 1 July snowfall 0.0  
Snow Depth -    
Sea Level Pressure  
Sea Level Pressure 29.68 in    
Wind  
Wind Speed 2 mph (East)    
Max Wind Speed 9 mph    
Max Gust Speed -    
Visibility 7 miles    
Events Fog    
T = Trace of Precipitation, MM = Missing Value Source: NWS Daily Summary

Daily Weather History Graph

Daily Weather History Graph

Search for Another Location

Airport or City:

Trip Planner

Search our weather history database for the weather conditions in past years. The results will help you decide how hot, cold, wet, or windy it might be!

Date:

Astronomy

Nov. 02, 2013 Rise Set
Actual Time 7:22 AM EDT 5:45 PM EDT
Civil Twilight 6:53 AM EDT 6:13 PM EDT
Nautical Twilight 6:21 AM EDT 6:46 PM EDT
Astronomical Twilight 5:49 AM EDT 7:17 PM EDT
Moon 6:16 AM EDT (11/2) 5:14 PM EDT (11/2)
Length of Visible Light 11h 19m
Length of Day
10h 22m
Waning Crescent, 1% of the Moon is Illuminated
Nov 2
Waning Crescent
Nov 3
New
Nov 10
First Quarter
Nov 17
Full
Nov 25
Last Quarter

Hourly Weather History & Observations

Time (EDT) Temp. Dew Point Humidity Pressure Visibility Wind Dir Wind Speed Gust Speed Precip Events Conditions
12:23 AM 57.2 °F 57.2 °F 100% 29.65 in 1.8 mi Calm Calm - N/A   Clear
12:28 AM 55.4 °F 55.4 °F 100% 29.66 in 0.8 mi Calm Calm - N/A   Mist
12:42 AM 53.6 °F 53.6 °F 100% 29.67 in 0.2 mi Calm Calm - N/A Fog Fog
12:53 AM 55.0 °F 54.0 °F 96% 29.68 in 0.5 mi South 3.5 mph - N/A Fog Fog
1:11 AM 55.4 °F 55.4 °F 100% 29.68 in 0.2 mi SSW 3.5 mph - N/A Fog Fog
1:53 AM 53.1 °F 52.0 °F 96% 29.67 in 0.2 mi Calm Calm - N/A Fog Fog
2:36 AM 53.6 °F 51.8 °F 94% 29.67 in 0.5 mi Calm Calm - N/A Fog Fog
2:53 AM 53.1 °F 52.0 °F 96% 29.65 in 0.8 mi North 3.5 mph - N/A   Overcast
2:59 AM 53.6 °F 51.8 °F 94% 29.66 in 2.0 mi Calm Calm - N/A   Overcast
3:12 AM 53.6 °F 53.6 °F 100% 29.66 in 4.0 mi Variable 3.5 mph - N/A   Overcast
3:53 AM 57.0 °F 55.0 °F 93% 29.65 in 10.0 mi North 9.2 mph - N/A   Overcast
4:53 AM 55.9 °F 50.0 °F 80% 29.69 in 10.0 mi ENE 4.6 mph - N/A   Overcast
5:53 AM 55.0 °F 48.9 °F 80% 29.68 in 10.0 mi East 4.6 mph - 0.00 in   Overcast
6:53 AM 54.0 °F 46.0 °F 75% 29.67 in 10.0 mi ENE 3.5 mph - N/A   Mostly Cloudy
7:53 AM 48.0 °F 44.1 °F 86% 29.69 in 10.0 mi Calm Calm - N/A   Clear
8:53 AM 55.0 °F 48.9 °F 80% 29.70 in 10.0 mi Calm Calm - N/A   Scattered Clouds
9:53 AM 57.9 °F 50.0 °F 75% 29.68 in 10.0 mi ENE 3.5 mph - N/A   Clear
10:53 AM 62.1 °F 48.0 °F 60% 29.67 in 10.0 mi NE 5.8 mph - N/A   Clear
11:53 AM 64.0 °F 48.0 °F 56% 29.67 in 10.0 mi SE 5.8 mph - N/A   Clear
12:53 PM 64.0 °F 46.9 °F 54% 29.65 in 10.0 mi ESE 4.6 mph - N/A   Partly Cloudy
1:53 PM 63.0 °F 48.0 °F 58% 29.64 in 10.0 mi ESE 6.9 mph - N/A   Mostly Cloudy
2:53 PM 64.0 °F 46.9 °F 54% 29.64 in 10.0 mi SE 4.6 mph - N/A   Clear
3:53 PM 63.0 °F 50.0 °F 63% 29.65 in 10.0 mi SSE 4.6 mph - N/A   Clear
4:53 PM 61.0 °F 50.0 °F 67% 29.65 in 10.0 mi Calm Calm - N/A   Clear
5:53 PM 57.0 °F 48.0 °F 72% 29.66 in 10.0 mi SW 3.5 mph - N/A   Clear
6:53 PM 55.0 °F 46.9 °F 74% 29.70 in 10.0 mi Calm Calm - N/A   Clear
7:53 PM 52.0 °F 46.0 °F 80% 29.70 in 10.0 mi West 3.5 mph - N/A   Partly Cloudy
8:53 PM 55.0 °F 45.0 °F 69% 29.73 in 10.0 mi Calm Calm - N/A   Clear
9:53 PM 48.9 °F 43.0 °F 80% 29.76 in 10.0 mi Calm Calm - N/A   Clear
10:53 PM 48.0 °F 43.0 °F 83% 29.76 in 10.0 mi NW 3.5 mph - N/A   Clear
11:53 PM 48.9 °F 42.1 °F 77% 29.77 in 10.0 mi Calm Calm - N/A   Clear